Lübeck Blankensee Airport

Jump to: basic info | weather | frequencies | runways | comments

Related pages: nearby airports | nearby navaids | notams | map

Basic information (top)

Codes: LBC EDHL
Location: lon 53.805401, lat 10.719200, elev 53 ft / 16 m msl
Status: medium_airport
Scheduled airline service: yes
Links: Wikipedia Mobile

Weather (top)

Current conditions (rec'd 2014/10/20 19:20Z):

EDHL 201920Z 24008KT 9999 FEW047 BKN072 13/10 Q1010 RMK ATIS ECH

Airport forecast for Hamburg Airport 28nm (52km) WSW (rec'd 2014/10/20 00:30Z):

TAF TAF EDDH 202300Z 2100/2206 21007KT 9999 SCT020 BKN030 PROB30 
      TEMPO 2103/2109 BKN009 
      BECMG 2107/2109 19012KT 
      TEMPO 2111/2116 19015G25KT 
      TEMPO 2114/2117 4500 RA BKN012 
      BECMG 2115/2117 26012KT 
      TEMPO 2116/2120 28020G30KT 
      TEMPO 2120/2206 28020G30KT SHRA PROB30 
      TEMPO 2120/2206 4500 BKN014CB

Frequencies (top)

Verify before use: may be inaccurate or out of date.

AFIS: 125.1 MHz (BREMEN INFO)
ATIS: 119.925 MHz (ATIS)
GND: 121.775 MHz (GND)
INFO: 128.7 MHz (INFO)
RDR: 124.225 MHz (BREMEN RADAR)
TWR: 128.7 MHz (TWR)

Runways (top)

07/25: 6,896 x 197 ft (2,102 x 60 m) — paved — lighted — threshold 07 displaced 984 ft (300 m)

Latest comments (top)

No comments yet for Lübeck Blankensee Airport

More... (top)

See also NOTAMs and nearby airports and navaids, or visit the Lübeck Blankensee Airport page at the main OurAirports website..